This is the latest recevied weather packets stored in our database for station/object KJ7HSW. If no packets are shown the sender has not sent any weather packets the latest 10 day(s).
| Time | Temp. | Humidity | Pressure | Rain* | Wind** | Luminosity | Snow |
|---|---|---|---|---|---|---|---|
| 1778170621 | 12.78° C | 82% | 1020.1 hPa | 0 mm | - | 199 W/m² | - |
| 1778170317 | 12.78° C | 83% | 1020.2 hPa | 0 mm | - | 189 W/m² | - |
| 1778170014 | 12.78° C | 83% | 1020.5 hPa | 0 mm | - | 175 W/m² | - |
| 1778169710 | 12.78° C | 84% | 1020.2 hPa | 0 mm | - | 151 W/m² | - |
| 1778169406 | 12.78° C | 83% | 1020.4 hPa | 0 mm | - | 100 W/m² | - |
| 1778169103 | 12.78° C | 84% | 1020.2 hPa | 0 mm | - | 76 W/m² | - |
| 1778168799 | 12.22° C | 84% | 1020.5 hPa | 0 mm | - | 89 W/m² | - |
| 1778168497 | 12.22° C | 85% | 1020.3 hPa | 0 mm | - | 111 W/m² | - |
| 1778168193 | 12.22° C | 85% | 1020.5 hPa | 0 mm | - | 127 W/m² | - |
| 1778167890 | 12.22° C | 85% | 1020.3 hPa | 0 mm | - | 144 W/m² | - |
| 1778167586 | 12.22° C | 85% | 1020.5 hPa | 0 mm | - | 150 W/m² | - |
| 1778167282 | 12.22° C | 85% | 1020.4 hPa | 0 mm | - | 125 W/m² | - |
| 1778166978 | 12.22° C | 85% | 1020.4 hPa | 0 mm | - | 112 W/m² | - |
| 1778166676 | 12.22° C | 85% | 1020.4 hPa | 0 mm | - | 98 W/m² | - |
| 1778166373 | 11.67° C | 86% | 1020.6 hPa | 0 mm | - | 77 W/m² | - |
| 1778166069 | 11.67° C | 86% | 1020.5 hPa | 0 mm | - | 74 W/m² | - |
| 1778165764 | 11.67° C | 87% | 1020.3 hPa | 0 mm | - | 72 W/m² | - |
| 1778165462 | 11.67° C | 87% | 1020.4 hPa | 0 mm | - | 59 W/m² | - |
| 1778165158 | 11.67° C | 88% | 1020.4 hPa | 0 mm | - | 53 W/m² | - |
| 1778164856 | 11.67° C | 88% | 1020.3 hPa | 0 mm | - | 62 W/m² | - |
| 1778164553 | 11.67° C | 88% | 1020.3 hPa | 0 mm | - | 61 W/m² | - |
| 1778164251 | 11.67° C | 88% | 1020.2 hPa | 0 mm | - | 58 W/m² | - |
| 1778163950 | 11.67° C | 88% | 1020.3 hPa | 0 mm | - | 59 W/m² | - |
| 1778163648 | 11.11° C | 88% | 1020.3 hPa | 0 mm | - | 61 W/m² | - |
| 1778163344 | 11.11° C | 89% | 1020.3 hPa | 0 mm | - | 49 W/m² | - |
* Rain latest hour (hover to see other rain measurements)
** Current wind speed in m/s (hover to see current wind gust speed)